sat.trackr.live / text

‹ back to catalog

STARLINK-3506

NORAD 51751 · 2022-016AP

PAYLOAD ACTIVE UNKNOWN

§ Identity

Operator
Country
US
Launch date
2022-02-21
Launch site
AFETR
Launch vehicle
Mass (kg)
RCS (m²)

Purposes: comms

External: N2YO · Heavens-Above · Gunter

§ Orbital elements

Epoch: 2026-09-19T04:08:58.630848Z

Period
93.85 min
Inclination
53.1583°
Eccentricity
0.0001167
Mean motion
15.34405269 rev/d
Perigee alt
461.9 km
Apogee alt
463.5 km
Semi-major
6,840.8 km
B*
3.9974e-5
RAAN
145.5791°
Arg perigee
87.2229°
Mean anomaly
272.8907°
Rev number
25,311

§ Raw data

STARLINK-35061 51751U 22016AP  26262.17290082  .00000975  00000+0  39974-4 0  99932 51751  53.1583 145.5791 0001167  87.2229 272.8907 15.34405269253119

JSON: /api/v1/satellites/51751 · /tle

For live sub-satellite position, see the globe view (requires WebGL).

§ Visibility from observer

Set your observer location to see the next 7 days of passes ≥ 10°. The values pass through the URL so the page stays shareable.

No JS? Fill the form by hand. The geolocation button needs JavaScript.